SCP
0 0 0 0 0 0 0 0 0 0 0 0 0 0 0 0 0 0 0 0 0 0 0 0 0 0 0 0 0 0 0 0 0 0 0 0 0 0 0 0 0 0 0
0 0 0 0 0 0 0 0 0 0 0 0 0 0 0 0 0 0 0 0 0 0 0 0 0 0 0 0 0 0 0 0 0 0 0 0 0 0 0 0 0 0 0
0 0 0 0 0 0 0 0 0 0 0 0 0 0 0 0 0 0 0 0 0 0 0 0 0 0 0 0 0 0 0 0 0 0 0 0 0 0 0 0 0 0 0
0 0 0 0 0 0 0 0 0 0 0 0 0 0 0 0 0 0 0 0 0 0 0 0 0 0 0 0 0 0 0 0 0 0 0 0 0 0 0 0 0 0 0
0 0 0 0 0 0 0 0 0 0 0 0 0 0 0 0 0 0 0 0 0 0 0 0 0 0 0 0 0 0 0 0 0 0 0 0 0 0 0 0 0 0 0
0 0 0 0 0 0 0 0 0 0 0 0 0 0 0 0 0 0 0 0 0 0 0 0 0 0 0 0 0 0 0 0 0 0 0 0 0 0 0 0 0 0 0
0 0 0 0 0 0 0 0 0 0 0 0 0 0 0 0 0 0 0 0 0 0 0 0 0 0 0 0 0 0 0 0 0 0 0 0 0 0 0 0 0 0 0
0 0 0 0 0 0 0 0 0 0 0 0 0 0 0 0 0 0 0 0 0 0 0 0 0 0 0 0 0 0 0 0 0 0 0 0 0 0 0 0 0 0 0
0 0 0 0 0 0 0 0 0 0 0 0 0 0 0 0 0 0 0 0 0 0 0 0 0 0 0 0 0 0 0 0 0 0 0 0 0 0 0 0 0 0 0
0 0 0 0 0 0 0 0 0 0 0 0 0 0 0 0 0 0 0 0 0 0 0 0 0 0 0 0 0 0 0 0 0 0 0 0 0 0 0 0 0 0 0
0 0 0 0 0 0 0 0 0 0 0 0 0 0 0 0 0 0 0 0 0 0 0 0 0 0 0 0 0 0 0 0 0 0 0 0 0 0 0 0 0 0 0
0 0 0 0 0 0 0 0 0 0 0 0 0 0 0 0 0 0 0 0 0 0 0 0 0 0 0 0 0 0 0 0 0 0 0 0 0 0 0 0 0 0 0
0 0 0 0 0 0 0 0 0 0 0 0 0 0 0 0 0 0 0 0 0 0 0 0 0 0 0 0 0 0 0 0 0 0 0 0 0 0 0 0 0 0 0
0 0 0 0 0 0 0 0 0 0 0 0 0 0 0 0 0 0 0 0 0 0 0 0 0 0 0 0 0 0 0 0 0 0 0 0 0 0 0 0 0 0 0
0 0 0 0 0 0 0 0 0 0 0 0 0 0 0 0 0 0 0 0 0 0 0 0 0 0 0 0 0 0 0 0 0 0 0 0 0 0 0 0 0 0 0
0 0 0 0 0 0 0 0 0 0 0 0 0 0 0 0 0 0 0 0 0 0 0 0 0 0 0 0 0 0 0 0 0 0 0 0 0 0 0 0 0 0 0
0 0 0 0 0 0 0 0 0 0 0 0 0 0 0 0 0 0 0 0 0 0 0 0 0 0 0 0 0 0 0 0 0 0 0 0 0 0 0 0 0 0 0
0 0 0 0 0 0 0 0 0 0 0 0 0 0 0 0 0 0 0 0 0 0 0 0 0 0 0 0 0 0 0 0 0 0 0 0 0 0 0 0 0 0 0
0 0 0 0 0 0 0 0 0 0 0 0 0 0 0 0 0 0 0 0 0 0 0 0 0 0 0 0 0 0 0 0 0 0 0 0 0 0 0 0 0 0 0
0 0 0 0 0 0 0 0 0 0 0 0 0 0 0 0 0 0 0 0 0 0 0 0 0 0 0 0 0 0 0 0 0 0 0 0 0 0 0 0 0 0 0
0 0 0 0 0 0 0 0 0 0 0 0 0 0 0 0 0 0 0 0 0 0 0 0 0 0 0 0 0 0 0 0 0 0 0 0 0 0 0 0 0 0 0
0 0 0 0 0 0 0 0 0 0 0 0 0 0 0 0 0 0 0 0 0 0 0 0 0 0 0 0 0 0 0 0 0 0 0 0 0 0 0 0 0 0 0
0 0 0 0 0 0 0 0 0 0 0 0 0 0 0 0 0 0 0 0 0 0 0 0 0 0 0 0 0 0 0 0 0 0 0 0 0 0 0 0 0 0 0
0 0 0 0 0 0 0 0 0 0 0 0 0 0 0 0 0 0 0 0 0 0 0 0 0 0 0 0 0 0 0 0 0 0 0 0 0 0 0 0 0 0 0
0 0 0 0 0 0 0 0 0 0 0 0 0 0 0 0 0 0 0 0 0 0 0 0 0 0 0 0 0 0 0 0 0 0 0 0 0 0 0 0 0 0 0
0 0 0 0 0 0 0 0 0 0 0 0 0 0 0 0 0 0 0 0 0 0 0 0 0 0 0 0 0 0 0 0 0 0 0 0 0 0 0 0 0 0 0
Wind_Speed
10 9 9 8 7 6 6 5 4 3 3 4 4 5 6 6 7 7 8 9 10 10 10 11 12 12 10 10 10 10 11 12 17 18 14 15 18 18 16 16 15 16 14
9 8 8 7 7 6 5 4 3 3 3 4 4 5 6 7 7 8 9 10 10 11 12 13 13 11 14 12 11 12 12 13 15 21 18 15 18 18 18 19 16 14 15
9 8 8 7 7 6 5 4 3 2 3 3 4 5 6 7 8 8 9 10 11 12 12 13 14 14 15 13 14 13 12 13 14 16 19 16 15 14 17 17 18 16 16
9 9 8 7 7 6 5 3 2 2 2 3 4 5 6 7 8 8 10 11 12 12 12 13 14 14 15 15 14 15 14 14 14 15 16 16 15 15 14 14 15 13 14
10 9 8 7 6 5 4 3 2 1 2 3 4 5 6 6 6 9 11 12 13 14 13 13 14 15 18 17 14 15 15 14 13 14 15 16 15 14 13 13 15 15 16
10 9 8 7 6 5 4 2 0 1 2 4 4 6 7 6 10 15 14 13 13 14 14 14 14 15 16 20 22 22 21 18 16 15 15 17 18 17 15 14 14 15 16
10 9 8 7 6 5 3 1 0 2 3 4 5 6 7 9 14 16 17 14 14 13 14 13 12 12 16 16 18 22 20 22 23 19 19 20 20 17 18 18 16 17 18
10 9 8 7 6 5 3 1 1 2 3 5 6 7 8 9 15 17 18 14 12 13 13 14 15 15 15 18 17 18 18 18 20 17 18 20 19 19 18 19 20 19 20
11 10 9 8 6 5 3 2 2 3 4 5 6 7 8 10 14 17 17 11 10 12 13 14 16 16 21 25 20 19 19 18 21 26 28 28 31 32 27 18 17 16 17
11 10 9 8 7 5 4 3 2 3 5 5 6 7 9 10 14 16 16 9 10 11 12 13 16 18 23 26 20 19 20 19 18 19 21 23 23 23 27 21 17 16 17
10 9 8 7 6 5 4 3 3 4 5 5 7 7 8 9 13 15 16 10 11 12 12 12 12 22 26 28 26 19 22 23 19 18 16 16 15 14 15 15 15 15 16
10 9 8 7 5 4 4 3 4 4 5 6 6 7 6 7 9 13 17 17 17 14 13 12 14 25 28 29 23 23 28 23 13 13 13 13 13 13 13 14 16 17 18
10 9 8 6 5 5 5 4 4 4 4 4 4 5 6 6 8 14 16 18 20 14 12 19 23 26 25 19 20 24 19 12 11 11 12 13 12 14 14 14 16 16 18
10 9 8 7 6 6 5 4 4 4 4 4 5 5 6 7 7 7 9 11 13 13 11 13 19 20 17 16 14 12 9 10 11 12 12 13 13 13 13 13 13 13 14
10 8 8 7 6 5 5 5 5 6 6 6 6 6 7 8 9 16 14 10 10 10 11 8 9 9 9 9 9 9 9 10 10 10 12 13 13 13 13 12 12 13 14
10 9 7 6 6 5 4 4 8 9 11 13 13 11 9 12 16 18 18 17 17 16 10 7 8 8 9 10 11 11 11 11 11 11 12 12 13 13 13 12 12 13 14
10 9 7 7 6 5 5 4 4 4 7 9 10 11 11 13 15 15 16 15 13 11 5 6 7 8 9 10 10 11 12 12 12 12 12 13 13 13 13 13 12 12 13
9 8 7 6 6 5 5 4 4 4 4 4 5 9 11 12 13 13 13 10 6 5 5 7 8 8 9 10 10 11 12 12 12 12 12 12 12 12 12 13 12 14 14
9 7 6 6 5 5 4 4 4 5 5 5 5 5 6 9 11 9 7 3 6 6 6 7 8 8 9 10 10 11 12 12 13 13 12 13 12 12 12 12 13 16 15
7 8 7 6 5 5 5 5 5 5 5 5 6 5 4 4 4 5 4 4 5 7 7 8 8 9 9 10 10 11 11 12 13 12 12 12 12 11 13 14 13 13 12
7 7 9 6 5 5 5 5 5 5 5 6 6 6 9 7 6 6 6 6 6 7 7 8 8 9 9 9 10 11 13 12 12 12 12 12 12 12 11 11 12 12 12
6 6 6 6 5 5 5 5 5 5 6 7 6 6 9 6 6 6 6 6 7 7 7 8 8 8 9 9 10 11 12 12 12 12 13 12 12 12 12 11 11 11 11
6 6 5 5 4 5 5 5 5 6 6 7 6 6 5 5 6 7 7 7 7 7 7 7 8 9 9 9 9 10 11 11 12 13 13 12 12 11 11 11 13 12 11
6 6 5 5 5 5 5 5 6 6 7 7 7 6 6 6 7 8 8 7 7 8 7 7 8 11 15 12 10 10 10 12 12 11 14 12 12 11 11 11 11 12 11
5 5 5 5 5 5 5 6 6 7 7 7 7 7 7 7 7 8 7 7 8 9 10 10 8 9 13 16 14 13 16 18 14 10 10 9 10 11 11 11 10 11 10
5 5 5 5 5 5 6 6 6 7 7 7 7 7 7 7 7 8 7 7 7 8 9 9 10 12 15 14 15 17 18 18 15 11 8 7 8 9 10 9 11 10 10
Wind_Direction
146 140 133 126 122 117 109 99 87 71 44 25 9 358 351 345 340 332 324 318 312 309 307 303 301 302 297 295 293 287 282 280 282 288 287 289 289 288 289 287 285 284 281
152 147 141 137 135 130 120 109 92 68 40 19 1 350 344 337 332 325 318 315 310 308 308 306 303 303 299 297 293 289 287 285 285 289 291 291 289 289 287 286 285 281 279
157 154 152 151 148 141 131 117 93 58 26 9 354 345 336 330 324 319 314 310 307 305 305 303 303 303 299 298 297 293 291 289 286 286 289 291 289 288 288 285 284 281 279
164 164 164 162 155 146 133 117 88 43 7 353 344 333 326 321 314 313 310 306 303 301 300 299 298 298 297 299 297 294 293 291 288 286 286 289 289 291 288 287 286 284 283
169 171 169 160 152 142 131 117 87 22 354 340 328 321 316 310 307 312 309 305 303 302 299 297 295 295 293 292 289 292 293 291 290 289 287 289 290 294 293 294 290 290 284
173 172 163 158 151 144 135 127 93 339 331 323 313 308 305 299 304 307 308 305 302 299 299 298 297 293 291 293 292 291 290 288 288 286 284 284 288 292 294 292 292 290 287
170 165 163 158 153 148 143 148 283 312 310 302 301 300 297 297 303 307 308 306 299 295 296 296 295 294 295 292 293 293 290 285 282 281 281 282 287 290 292 290 285 284 283
167 166 164 159 154 151 160 196 264 285 290 293 295 295 293 293 303 308 309 303 295 292 292 292 292 292 292 293 292 289 286 283 280 277 275 278 280 282 281 282 283 282 279
172 172 169 163 158 162 185 219 256 277 282 285 284 288 291 295 303 307 307 302 294 294 293 290 289 290 291 293 292 290 288 285 283 279 276 277 277 278 277 278 279 278 278
177 170 162 158 160 173 193 221 248 264 273 281 283 286 286 288 297 304 308 299 297 296 293 290 288 289 292 295 294 291 290 290 289 288 283 281 279 278 276 270 271 271 275
157 152 154 156 163 173 186 214 240 259 273 278 281 280 278 280 291 300 303 300 298 300 298 298 296 298 298 298 298 293 293 297 296 293 290 287 284 281 277 271 265 264 268
150 153 154 156 164 167 185 213 234 250 265 271 278 285 279 280 285 295 303 306 305 300 298 297 298 303 305 307 307 303 306 308 301 296 291 289 288 287 285 283 276 269 266
152 156 157 161 172 181 197 212 228 234 252 268 277 286 293 291 291 300 304 304 304 302 298 302 308 312 315 313 309 309 311 305 300 295 292 290 291 291 291 288 284 278 273
161 164 167 174 183 189 208 214 221 230 241 252 265 278 288 292 297 302 300 305 310 311 312 315 318 317 315 311 310 310 305 299 298 294 292 293 293 291 288 286 284 282 278
166 170 176 183 189 195 209 218 224 229 232 241 255 268 285 295 299 306 312 314 318 321 327 321 315 316 318 317 314 311 307 304 300 297 295 295 293 290 288 286 283 280 276
171 178 180 183 185 195 208 230 241 251 259 264 269 276 283 288 299 308 314 318 326 329 327 311 310 311 312 313 314 313 311 307 305 302 298 295 295 295 293 290 284 279 276
179 176 177 180 183 191 201 220 247 257 265 272 276 284 290 296 303 310 315 324 328 330 316 301 303 306 306 307 307 307 307 306 304 301 299 298 297 295 294 292 289 283 278
180 175 176 180 184 189 198 211 229 253 273 271 271 286 292 301 305 310 322 331 316 317 296 296 299 301 303 304 305 306 305 306 306 305 303 301 299 297 295 292 290 288 286
178 176 177 176 181 187 195 208 222 235 251 267 281 286 292 304 300 305 330 310 297 299 299 296 296 298 300 302 303 304 306 306 308 309 307 306 304 301 296 293 291 289 287
181 178 173 175 180 187 194 207 220 230 242 254 264 273 294 289 287 298 298 284 282 285 292 294 296 297 299 301 304 306 308 309 311 312 313 311 308 303 299 297 295 294 293
172 175 178 181 189 194 200 210 221 230 239 250 257 264 272 280 283 283 283 278 277 283 288 292 294 297 298 301 304 307 310 310 313 316 316 315 313 309 304 300 298 297 297
168 172 180 189 191 199 207 215 224 233 243 252 261 270 279 275 269 271 272 274 275 276 279 284 287 290 293 299 303 306 308 311 316 320 320 317 315 313 312 309 308 308 307
170 175 182 191 198 203 215 223 229 236 244 250 257 262 263 260 261 265 269 274 278 280 281 281 284 288 291 297 299 299 302 308 314 318 320 317 318 320 319 319 319 320 322
176 185 193 197 202 211 222 229 234 239 244 250 252 254 257 259 262 266 270 273 276 279 280 281 281 285 293 300 300 300 300 305 312 316 318 317 321 323 325 327 328 333 333
182 192 202 208 213 220 229 237 242 245 248 249 252 254 256 258 262 266 269 270 275 277 282 286 283 287 294 299 300 302 306 310 314 318 318 319 325 329 331 332 336 339 344
192 203 212 216 222 227 232 240 246 249 251 253 253 255 257 259 262 266 269 270 273 279 283 284 284 290 296 297 298 305 309 312 316 321 321 322 327 334 338 338 342 347 351